Location: Fontevrault
(47.1823°N, 0.0493°E)
Time: 12:33:18
(UTC+00:00)

Lacrosse 5 - Pass Details

Date: 01 November 2021
Orbit: 714 x 724 km, 57.0° (Epoch: 28 August)

Event Time Altitude Azimuth Distance (km) Brightness Sun altitude
Rises 18:45:46 0° 228° (SW) 3,128 5.9 -21.3°
Reaches altitude 10° 18:48:09 10° 228° (SW) 2,210 5.0 -21.7°
Maximum altitude 18:53:15 86° 141° (SE) 732 1.8 -22.5°
Enters shadow 18:54:24 55° 57° (ENE) 870 1.9 -22.7°
